User: anonymous   Login
Location: ??????
(55.8274°N, 37.9338°E)
Time: 15:16:36
(UTC+00:00)
Language:

Cosmos 1743 - Orbit

View from above orbital plane
View from above orbital plane
View from above satellite
View from above satellite

Ground track
Ground track

The orbit data is extracted from the following two-line orbital elements,

1 16719U 86034A   24165.92218561  .00007931  00000-0  28877-3 0  9992
2 16719  82.5469   0.9580 0010622  48.7523 311.4629 15.27998976 82641
Epoch (UTC): 13 June 2024 22:07:56
Eccentricity: 0.0010622
inclination: 82.5469°
perigee height: 474 km
apogee height: 489 km
right ascension of ascending node: 0.9580°
argument of perigee: 48.7523°
revolutions per day: 15.27998976
mean anomaly at epoch: 311.4629°
orbit number at epoch: 8264

The dashed part of the orbit path shows where the satellite is in the earth's shadow,  

DLR